map of LEE home
LEE - Airport
Location
City:  Leesburg, Florida, United States
Name:Leesburg International Airport
ICAO:KLEE
IATA:LEE
FAA LID:LEE

Details
Type:Airport (Airfield)
Use:Public/Civil
Latitude:2849'22"N (28.822889)
Longitude:8148'30"W (-81.808416)
Datum:WGS 1984
Elevation:75 ft (23 m)
Variation:6.06W (WMM2015 magnetic declination)
-0.09 annual change
Runways:2
Longest:6300 × 100 ft (1920 × 30.5 m), paved

Time
Time Zone:UTC-5 (DST-4)
Local Time:

Weather
METAR:KLEE 231153Z 23010KT 10SM CLR 16/13 A2947 RMK AO2 SLP980 60003 70092 T01610128 10183 20161 55003
TAF:KLEE 231124Z 2312/2412 26012G19KT P6SM VCSH BKN035
FM231500 28020G30KT P6SM BKN040
FM232300 29012G18KT P6SM FEW040

Related Locations
Nearby:
Farthest:USL: 11495 mi / 18499 km
Useless Loop, WA, AU

Find:

   beyond  
but within

Other Information
Maps:
NOTAMs:
Links:
Sources:

  
flag of United States
flag of Florida
  

Airport Diagram

Airport diagram for LEE

Airport diagram PDF

Sectional Chart

Flight Planning
at skyvector.com

Satellite Image

Google Maps Satellite view

 

Copyright © 2004-2017 Karl L. Swartz. All rights reserved.
The Great Circle Mapper name and logo are trademarks of the Great Circle Mapper.
All other trademarks mentioned herein belong to their respective owners.
Please see credits for attibutions and further copyright information.

  Follow gcmap on Facebook Follow gcmap on Twitter Follow gcmap on Google+ GCmap on LinkedIn

hCard Microformat

Geo Microformat